Home   Weather   Medina   Past weeks

Flag for Saudi Arabia Past Weather in Medina, Saudi Arabia — Yesterday and Last 2 Weeks

Now
82 °F

Clear.


Feels Like: 80 °F
Forecast: 70 / 104 °F
Wind: No wind

Location: Madinah

Current Time: Sep 28, 2016 at 4:58:38 AM

Latest Report: Sep 28, 2016 at 4:00 AM


Visibility: 10 mi

Pressure: 29.98 "Hg (27.99 "Hg at 606m altitude)

Humidity: 10%

Dew Point: 21 °F

Location of MedinaLocation

Past Weather in Medina — Graph

°F

Medina Temperature Yesterday

Maximum temperature yesterday: 106 °F (at 2:00 PM)
Minimum temperature yesterday: 81 °F (at 6:00 AM)
Average temperature yesterday: 95 °F

High & Low Weather Summary for the Past Weeks

 TemperatureHumidityPressure
High109 °F (Sep 13, 2:00 PM)23% (Sep 15, 1:00 AM)30.01 "Hg (Sep 15, 1:00 AM)
Low81 °F (Sep 25, 6:00 AM)2% (Sep 13, 2:00 PM)29.68 "Hg (Sep 25, 6:00 AM)
Average97 °F8%29.88 "Hg
* Reported Sep 13 3:00 AM — Sep 28 3:00 AM, Medina, Weather by CustomWeather, © 2016

Note: Actual official high and low records may vary slightly from our data, if they occured in-between our weather recording intervals... More about our weather records

Advertising

Medina Weather History for the Previous 24 Hours

Scroll right to see more
 ConditionsComfort  
Time TempWeatherWind HumidityBarometerVisibility
3:00 AM
Wed, Sep 28
86 °FClear.No wind11%29.98 "Hg10 mi
2:00 AM88 °FClear.No wind9%29.98 "Hg10 mi
1:00 AM91 °FClear.No wind6%29.98 "Hg10 mi
12:00 AM91 °FClear.No wind7%29.98 "Hg10 mi
11:00 PM
Tue, Sep 27
95 °FClear.No wind6%29.98 "Hg10 mi
10:00 PM95 °FClear.5 mph5%29.98 "Hg10 mi
9:00 PM97 °FClear.8 mph6%29.95 "Hg10 mi
8:00 PM99 °FClear.No wind4%29.92 "Hg10 mi
7:00 PM102 °FClear.5 mph4%29.92 "Hg10 mi
6:00 PM104 °FSunny.7 mph4%29.89 "Hg10 mi
5:00 PM104 °FSunny.12 mph4%29.89 "Hg10 mi
4:00 PM106 °FSunny.16 mph4%29.89 "Hg10 mi
3:00 PM106 °FSunny.10 mph4%29.89 "Hg10 mi
2:00 PM106 °FSunny.6 mph4%29.92 "Hg10 mi
1:00 PM104 °FSunny.7 mph4%29.95 "Hg10 mi
12:00 PM102 °FSunny.7 mph4%29.98 "Hg10 mi
11:00 AM99 °FSunny.8 mph5%30.01 "Hg10 mi
10:00 AM97 °FSunny.No wind6%30.01 "Hg10 mi
9:00 AM91 °FSunny.No wind8%30.01 "Hg10 mi
8:00 AM86 °FSunny.No wind11%30.01 "Hg10 mi
7:00 AM82 °FSunny.3 mph12%29.98 "Hg10 mi
6:00 AM81 °FClear.6 mph13%29.98 "Hg10 mi
5:00 AM84 °FClear.No wind11%29.95 "Hg10 mi
4:00 AM86 °FClear.7 mph11%29.95 "Hg10 mi
Weather by CustomWeather, © 2016

See weather overviewHow to use our weather pages